Location: Fort Wayne
(41.1310°N, 85.1290°W)
Time: 09:12:38
(UTC-05:00)

Vanguard 3 - Visible Passes

Search period start: 28 January 2015 00:00
Search period end: 07 February 2015 00:00
Orbit: 509 x 3275 km, 33.4° (Epoch: 27 January)

Date Brightness Start Highest point End Pass type
(mag) Time Alt. Az. Time Alt. Az. Time Alt. Az.
28 Jan 11.4 01:01:28 10° W 01:03:00 13° W 01:03:00 13° W visible
28 Jan 10.1 19:16:33 10° WSW 19:31:38 62° SSE 19:45:15 25° E visible
28 Jan 9.9 21:30:03 10° W 21:48:15 67° S 21:49:57 65° SSE visible
28 Jan 10.8 23:45:48 10° W 23:54:39 31° WSW 23:54:39 31° WSW visible
29 Jan 10.2 18:04:27 10° SW 18:17:16 52° SSE 18:35:51 10° E visible
29 Jan 10.0 20:16:32 10° WSW 20:32:59 68° S 20:41:36 43° ESE visible
29 Jan 10.2 22:31:01 10° W 22:46:18 54° SW 22:46:18 54° SW visible
30 Jan 11.3 00:48:10 10° W 00:51:00 15° W 00:51:00 15° W visible
30 Jan 10.0 19:03:45 10° WSW 19:18:03 63° SSE 19:33:15 21° E visible
30 Jan 10.0 21:17:00 10° W 21:34:32 65° S 21:37:57 59° SSE visible
30 Jan 10.7 23:32:30 10° W 23:42:39 34° WSW 23:42:39 34° WSW visible
31 Jan 10.0 20:03:42 10° WSW 20:19:21 67° S 20:29:38 37° ESE visible
31 Jan 10.2 22:17:54 10° W 22:34:20 55° SW 22:34:20 55° SW visible
01 Feb 11.3 00:35:02 10° W 00:39:02 17° W 00:39:02 17° W visible
01 Feb 10.0 18:51:02 10° WSW 19:04:32 65° S 19:21:21 16° E visible
01 Feb 10.1 21:04:05 10° W 21:20:49 63° SSW 21:26:03 52° SSE visible
01 Feb 10.7 23:19:22 10° W 23:30:45 35° WSW 23:30:45 35° WSW visible
02 Feb 10.0 19:50:57 10° W 20:05:46 66° S 20:17:48 30° ESE visible
02 Feb 10.2 22:04:53 10° W 22:22:05 52° SSW 22:22:30 52° SSW visible
03 Feb 11.2 00:22:09 10° W 00:27:13 18° WSW 00:27:13 18° WSW visible
03 Feb 9.9 18:38:26 10° WSW 18:51:06 65° S 19:09:35 12° E visible
03 Feb 10.1 20:51:15 10° W 21:07:07 60° SSW 21:14:18 44° SE visible
03 Feb 10.7 23:06:23 10° W 23:19:01 35° SW 23:19:01 35° SW visible
04 Feb 10.0 19:38:18 10° W 19:52:15 64° S 20:06:09 24° ESE visible
04 Feb 10.3 21:51:59 10° W 22:08:17 48° SSW 22:10:52 46° S visible
05 Feb 11.2 00:09:34 10° W 00:15:35 18° WSW 00:15:35 18° WSW visible
05 Feb 9.9 18:25:55 10° WSW 18:37:46 64° S 18:56:28 10° ESE visible
05 Feb 10.2 20:38:31 10° W 20:53:28 56° SSW 21:02:48 35° SE visible
05 Feb 10.7 22:53:35 10° W 23:07:31 33° SW 23:07:31 33° SW visible
06 Feb 10.0 19:25:43 10° W 19:38:47 62° S 19:54:48 17° ESE visible
06 Feb 10.4 21:39:14 10° W 21:54:32 43° SSW 21:59:32 38° S visible
